Regional Weather Roundup
Issued by NWS

Home | Current Version | Previous Version | Graphics & Text | Print | Product List | Glossary Off
Versions: 1 2 3 4 5 6 7 8 9 10 11 12 13 14 15 16 17 18 19 20 21 22 23 24 25 26 27 28 29 30 31 32 33 34 35 36 37 38 39 40 41 42 43 44 45 46 47 48 49 50

000
ASUS43 KLSX 240007
RWRMO

WEATHER SUMMARY FOR MISSOURI
NATIONAL WEATHER SERVICE SPRINGFIELD MO
700 PM CDT WED MAY 23 2018

NOTE: "FAIR" INDICATES FEW OR NO CLOUDS BELOW 12,000 FEET WITH NO
       SIGNIFICANT WEATHER AND/OR OBSTRUCTIONS TO VISIBILITY.
       CURRENT SKY AND/OR WEATHER CONDITIONS ARE NOT AVAILABLE FOR
       CHILLICOTHE AND FARMINGTON.

MOZ001>031-035>038-043-044-053-054-240100-
...NORTHERN AND WESTERN MISSOURI...

CITY           SKY/WX    TMP DP  RH WIND       PRES   REMARKS
KANSAS CTY INT PTSUNNY   83  65  54 S10       30.03R
6HR MIN TEMP:  83; 6HR MAX TEMP:  88;

KANSAS C DTWN  MOSUNNY   87  63  44 SE12      30.03R
6HR MIN TEMP:  87; 6HR MAX TEMP:  91;

LEE`S SUMMIT   CLOUDY    84  65  52 S13       30.05R
6HR MIN TEMP:  84; 6HR MAX TEMP:  89;

ST JOSEPH      SUNNY     88  62  41 S16G22    30.01S
6HR MIN TEMP:  87; 6HR MAX TEMP:  92;

CHILLICOTHE      N/A     86  66  51 SE7       30.04S
6HR MIN TEMP:  85; 6HR MAX TEMP:  90;

KIRKSVILLE     SUNNY    N/A N/A N/A SE10      30.09R

$$
MOZ066>068-077>081-088>096-101>105-240100-
...SOUTHWEST MISSOURI...

CITY           SKY/WX    TMP DP  RH WIND       PRES   REMARKS
SPRINGFIELD    CLOUDY    69  65  86 S5        30.11F
6HR MIN TEMP:  69; 6HR MAX TEMP:  86; 6HR PCP:  0.25;

JOPLIN         PTSUNNY   73  70  90 E7        30.07F
6HR MIN TEMP:  71; 6HR MAX TEMP:  85; 6HR PCP:  0.31;

BRANSON        CLOUDY    68  68 100 CALM      30.14S

$$
MOZ032>034-039>042-045>050-055>058-069>072-240100-
...CENTRAL MISSOURI...

CITY           SKY/WX    TMP DP  RH WIND       PRES   REMARKS
COLUMBIA       SUNNY     83  65  54 E9        30.08S
6HR MIN TEMP:  83; 6HR MAX TEMP:  87;

JEFFERSON CITY MOSUNNY   86  66  51 E8        30.07R
6HR MIN TEMP:  84; 6HR MAX TEMP:  88;

ROLLA          CLOUDY    81  66  60 E8        30.11S
6HR MIN TEMP:  81; 6HR MAX TEMP:  85;

SEDALIA        MOSUNNY   85  69  58 SE10      30.07S
6HR MIN TEMP:  84; 6HR MAX TEMP:  88;

WHITEMAN AFB   PTSUNNY   82  68  62 S5        30.02S
WARRENSBURG    MOSUNNY   82  66  57 SE9       30.05S
OSAGE BEACH    CLOUDY    81  69  67 S12       30.09S THUNDER

$$
MOZ051-052-059>065-240100-
...EAST CENTRAL MISSOURI...

CITY           SKY/WX    TMP DP  RH WIND       PRES   REMARKS
ST LOUIS INTL  MOSUNNY   83  64  52 E3        30.10R
6HR MIN TEMP:  82; 6HR MAX TEMP:  86;

SPIRIT OF STL  MOSUNNY   83  67  58 E6        30.08S
6HR MIN TEMP:  83; 6HR MAX TEMP:  87;

ST CHARLES     SUNNY     84  66  54 CALM      30.08S
6HR MIN TEMP:  82; 6HR MAX TEMP:  86;


$$
MOZ072>076-082>087-097>100-106>115-240100-
...SOUTH CENTRAL AND SOUTHEAST MISSOURI...

CITY           SKY/WX    TMP DP  RH WIND       PRES   REMARKS
CAPE GIRARDEAU FAIR      83  64  52 NE8       30.07R
6HR MIN TEMP:  83; 6HR MAX TEMP:  88;

FARMINGTON     CLOUDY    80  66  62 E3        30.12R
6HR MIN TEMP:  80; 6HR MAX TEMP:  85;

POPLAR BLUFF   FAIR      83  68  60 NE3       30.07R
6HR MIN TEMP:  83; 6HR MAX TEMP:  87;

WEST PLAINS    TSTM      67  65  93 SW5       30.15S
6HR MIN TEMP:  66; 6HR MAX TEMP:  85; 6HR PCP:  0.04;


$$




USA.gov is the U.S. government's official web portal to all federal, state and local government web resources and services.